Location: Bothwell
(41.7170°N, 112.2589°W)
Time: 13:56:11
(UTC+00:00)

Vanguard 2 - Pass Details

Date: 11 May 2026
Orbit: 553 x 2894 km, 32.9° (Epoch: 8 June)

Event Time Altitude Azimuth Distance (km) Brightness Sun altitude
Rises 11:38:16 0° 248° (WSW) 6,728 - -6.6°
Exits shadow 11:41:14 - 246° (WSW) 6,064 11.4 -6.1°
Reaches altitude 10° 11:42:57 10° 245° (WSW) 5,674 11.3 -5.8°
Maximum altitude 11:59:18 57° 173° (S) 2,711 10.2 -3.2°
Drops below altitude 10° 12:10:41 10° 99° (E) 4,085 12.2 -1.3°
Sets 12:13:28 0° 95° (E) 4,799 12.8 -0.8°
